| time (UTC) | temp F | wind direction | speed MPH | gust MPH | rain 1hr in | rain 24hr in | rain mn in | humidity % | barometer mb |
| 20260831220026 | 84 | 72 | 3.0 | 7.0 | 0.00 | 0.00 | 0.00 | 30 | 1010.2 |
| 20260831215025 | 84 | 7 | 4.0 | 7.0 | 0.00 | 0.00 | 0.00 | 30 | 1010.3 |
| 20260831214026 | 84 | 47 | 3.0 | 6.0 | 0.00 | 0.00 | 0.00 | 30 | 1010.4 |
| 20260831213027 | 84 | 54 | 4.0 | 7.0 | 0.00 | 0.00 | 0.00 | 30 | 1010.6 |
| 20260831212025 | 85 | 351 | 4.0 | 5.0 | 0.00 | 0.00 | 0.00 | 28 | 1010.7 |
| 20260831211107 | 86 | 340 | 3.0 | 7.0 | 0.00 | 0.00 | 0.00 | 29 | 1010.9 |
| 20260831210025 | 86 | 333 | 4.0 | 6.0 | 0.00 | 0.00 | 0.00 | 29 | 1010.9 |
| 20260831205025 | 85 | 335 | 4.0 | 6.0 | 0.00 | 0.00 | 0.00 | 29 | 1011.1 |
| 20260831204026 | 84 | 231 | 3.0 | 5.0 | 0.00 | 0.00 | 0.00 | 32 | 1011.3 |
| 20260831203026 | 83 | 284 | 4.0 | 6.0 | 0.00 | 0.00 | 0.00 | 32 | 1011.5 |
| 20260831202026 | 83 | 354 | 3.0 | 6.0 | 0.00 | 0.00 | 0.00 | 31 | 1011.7 |
| 20260831201026 | 83 | 216 | 2.0 | 4.0 | 0.00 | 0.00 | 0.00 | 32 | 1011.9 |
| 20260831200028 | 82 | 346 | 3.0 | 5.0 | 0.00 | 0.00 | 0.00 | 33 | 1012.1 |
| 20260831195027 | 82 | 283 | 2.0 | 4.0 | 0.00 | 0.00 | 0.00 | 33 | 1012.2 |
| 20260831194028 | 81 | 35 | 3.0 | 4.0 | 0.00 | 0.00 | 0.00 | 33 | 1012.4 |
| 20260831193027 | 81 | 89 | 2.0 | 4.0 | 0.00 | 0.00 | 0.00 | 35 | 1012.6 |
| 20260831192027 | 80 | 141 | 1.0 | 4.0 | 0.00 | 0.00 | 0.00 | 36 | 1012.9 |
| 20260831191027 | 79 | 103 | 3.0 | 4.0 | 0.00 | 0.00 | 0.00 | 36 | 1013.1 |
| 20260831190027 | 79 | 121 | 3.0 | 4.0 | 0.00 | 0.00 | 0.00 | 36 | 1013.2 |
| 20260831185027 | 79 | 144 | 3.0 | 5.0 | 0.00 | 0.00 | 0.00 | 36 | 1013.4 |
| 20260831184028 | 78 | 21 | 2.0 | 3.0 | 0.00 | 0.00 | 0.00 | 36 | 1013.6 |
| 20260831183028 | 77 | 241 | 2.0 | 3.0 | 0.00 | 0.00 | 0.00 | 37 | 1013.7 |
| 20260831182029 | 77 | 164 | 2.0 | 3.0 | 0.00 | 0.00 | 0.00 | 36 | 1013.7 |
| 20260831181027 | 76 | 344 | 2.0 | 4.0 | 0.00 | 0.00 | 0.00 | 36 | 1013.9 |
| 20260831180027 | 75 | 205 | 2.0 | 3.0 | 0.00 | 0.00 | 0.00 | 37 | 1014.0 |
| 20260831175029 | 75 | 284 | 3.0 | 5.0 | 0.00 | 0.00 | 0.00 | 38 | 1014.2 |
| 20260831174029 | 74 | 257 | 3.0 | 4.0 | 0.00 | 0.00 | 0.00 | 40 | 1014.2 |
| 20260831173028 | 73 | 274 | 3.0 | 5.0 | 0.00 | 0.00 | 0.00 | 42 | 1014.3 |
| 20260831172028 | 72 | 286 | 3.0 | 4.0 | 0.00 | 0.00 | 0.00 | 41 | 1014.4 |
| 20260831171028 | 72 | 266 | 3.0 | 4.0 | 0.00 | 0.00 | 0.00 | 42 | 1014.4 |
| 20260831170028 | 72 | 313 | 2.0 | 3.0 | 0.00 | 0.00 | 0.00 | 42 | 1014.5 |
| 20260831165029 | 71 | 272 | 3.0 | 4.0 | 0.00 | 0.00 | 0.00 | 42 | 1014.6 |
| 20260831164030 | 70 | 267 | 1.0 | 3.0 | 0.00 | 0.00 | 0.00 | 42 | 1014.7 |
| 20260831163029 | 69 | 349 | 3.0 | 3.0 | 0.00 | 0.00 | 0.00 | 44 | 1014.8 |
| 20260831162031 | 69 | 288 | 2.0 | 3.0 | 0.00 | 0.00 | 0.00 | 46 | 1014.9 |
| 20260831161030 | 67 | 276 | 1.0 | 2.0 | 0.00 | 0.00 | 0.00 | 51 | 1015.0 |
| 20260831160029 | 64 | 0.0 | 0.0 | 0.00 | 0.00 | 0.00 | 54 | 1015.1 | |
| 20260831155031 | 62 | 281 | 1.0 | 3.0 | 0.00 | 0.00 | 0.00 | 61 | 1015.0 |
| 20260831154031 | 60 | 281 | 2.0 | 2.0 | 0.00 | 0.00 | 0.00 | 63 | 1015.1 |
| 20260831153031 | 60 | 270 | 1.0 | 2.0 | 0.00 | 0.00 | 0.00 | 61 | 1015.1 |
| 20260831152031 | 60 | 0.0 | 0.0 | 0.00 | 0.00 | 0.00 | 60 | 1015.1 | |
| 20260831151030 | 60 | 0.0 | 0.0 | 0.00 | 0.00 | 0.00 | 62 | 1015.1 | |
| 20260831150030 | 59 | 0.0 | 0.0 | 0.00 | 0.00 | 0.00 | 68 | 1015.2 | |
| 20260831145050 | 57 | 0.0 | 0.0 | 0.00 | 0.00 | 0.00 | 78 | 1015.1 | |
| 20260831144030 | 55 | 0.0 | 0.0 | 0.00 | 0.00 | 0.00 | 81 | 1015.0 | |
| 20260831143052 | 53 | 0.0 | 0.0 | 0.00 | 0.00 | 0.00 | 83 | 1015.0 | |
| 20260831142032 | 50 | 0.0 | 0.0 | 0.00 | 0.00 | 0.00 | 85 | 1015.0 | |
| 20260831141053 | 48 | 0.0 | 0.0 | 0.00 | 0.00 | 0.00 | 86 | 1014.9 | |
| 20260831140032 | 46 | 0.0 | 0.0 | 0.00 | 0.00 | 0.00 | 86 | 1014.9 | |
| 20260831135032 | 46 | 0.0 | 0.0 | 0.00 | 0.00 | 0.00 | 86 | 1014.8 | |
| 20260831134030 | 45 | 0.0 | 0.0 | 0.00 | 0.00 | 0.00 | 85 | 1014.8 | |
| 20260831133032 | 44 | 0.0 | 0.0 | 0.00 | 0.00 | 0.00 | 85 | 1014.8 | |
| 20260831132031 | 44 | 0.0 | 0.0 | 0.00 | 0.00 | 0.00 | 85 | 1014.7 | |
| 20260831131532 | 44 | 0.0 | 0.0 | 0.00 | 0.00 | 0.00 | 84 | 1014.7 | |
| 20260831130531 | 44 | 0.0 | 0.0 | 0.00 | 0.00 | 0.00 | 84 | 1014.7 | |
| 20260831125531 | 44 | 0.0 | 0.0 | 0.00 | 0.00 | 0.00 | 84 | 1014.6 | |
| 20260831124533 | 44 | 0.0 | 0.0 | 0.00 | 0.00 | 0.00 | 84 | 1014.6 | |
| 20260831123531 | 44 | 0.0 | 0.0 | 0.00 | 0.00 | 0.00 | 84 | 1014.5 | |
| 20260831122532 | 45 | 0.0 | 0.0 | 0.00 | 0.00 | 0.00 | 84 | 1014.5 | |
| 20260831121533 | 45 | 0.0 | 0.0 | 0.00 | 0.00 | 0.00 | 83 | 1014.5 | |
| 20260831120532 | 45 | 0.0 | 0.0 | 0.00 | 0.00 | 0.00 | 83 | 1014.5 | |
| 20260831115552 | 45 | 0.0 | 0.0 | 0.00 | 0.00 | 0.00 | 82 | 1014.5 | |
| 20260831114532 | 46 | 0.0 | 0.0 | 0.00 | 0.00 | 0.00 | 82 | 1014.5 | |
| 20260831113534 | 46 | 0.0 | 0.0 | 0.00 | 0.00 | 0.00 | 82 | 1014.4 | |
| 20260831112532 | 46 | 0.0 | 0.0 | 0.00 | 0.00 | 0.00 | 82 | 1014.4 | |
| 20260831111532 | 46 | 0.0 | 0.0 | 0.00 | 0.00 | 0.00 | 82 | 1014.4 | |
| 20260831110533 | 46 | 0.0 | 0.0 | 0.00 | 0.00 | 0.00 | 81 | 1014.4 | |
| 20260831105532 | 46 | 0.0 | 0.0 | 0.00 | 0.00 | 0.00 | 81 | 1014.4 | |
| 20260831104532 | 47 | 0.0 | 0.0 | 0.00 | 0.00 | 0.00 | 81 | 1014.4 | |
| 20260831103554 | 47 | 0.0 | 0.0 | 0.00 | 0.00 | 0.00 | 81 | 1014.3 | |
| 20260831102554 | 47 | 0.0 | 0.0 | 0.00 | 0.00 | 0.00 | 81 | 1014.3 | |
| 20260831101534 | 47 | 0.0 | 0.0 | 0.00 | 0.00 | 0.00 | 80 | 1014.2 | |
| 20260831100535 | 47 | 0.0 | 0.0 | 0.00 | 0.00 | 0.00 | 80 | 1014.3 | |
| 20260831095533 | 47 | 0.0 | 0.0 | 0.00 | 0.00 | 0.00 | 79 | 1014.4 | |
| 20260831094533 | 48 | 0.0 | 0.0 | 0.00 | 0.00 | 0.00 | 79 | 1014.5 | |
| 20260831093533 | 48 | 0.0 | 0.0 | 0.00 | 0.00 | 0.00 | 78 | 1014.6 | |
| 20260831092533 | 49 | 0.0 | 0.0 | 0.00 | 0.00 | 0.00 | 77 | 1014.6 | |
| 20260831091534 | 49 | 0.0 | 0.0 | 0.00 | 0.00 | 0.00 | 77 | 1014.7 | |
| 20260831090534 | 49 | 0.0 | 0.0 | 0.00 | 0.00 | 0.00 | 76 | 1014.7 | |
| 20260831085534 | 49 | 0.0 | 0.0 | 0.00 | 0.00 | 0.00 | 76 | 1014.7 | |
| 20260831084534 | 50 | 0.0 | 0.0 | 0.00 | 0.00 | 0.00 | 75 | 1014.6 | |
| 20260831083534 | 50 | 0.0 | 0.0 | 0.00 | 0.00 | 0.00 | 75 | 1014.6 | |
| 20260831082534 | 50 | 0.0 | 0.0 | 0.00 | 0.00 | 0.00 | 74 | 1014.6 | |
| 20260831081616 | 51 | 0.0 | 0.0 | 0.00 | 0.00 | 0.00 | 73 | 1014.6 | |
| 20260831080536 | 51 | 0.0 | 0.0 | 0.00 | 0.00 | 0.00 | 72 | 1014.7 | |
| 20260831075535 | 51 | 0.0 | 0.0 | 0.00 | 0.00 | 0.00 | 71 | 1014.7 | |
| 20260831074534 | 52 | 0.0 | 0.0 | 0.00 | 0.00 | 0.00 | 70 | 1014.7 | |
| 20260831073535 | 52 | 0.0 | 0.0 | 0.00 | 0.00 | 0.00 | 70 | 1014.7 | |
| 20260831072556 | 52 | 0.0 | 0.0 | 0.00 | 0.00 | 0.00 | 70 | 1014.7 | |
| 20260831071535 | 52 | 0.0 | 0.0 | 0.00 | 0.00 | 0.00 | 71 | 1014.8 | |
| 20260831070536 | 52 | 0.0 | 0.0 | 0.00 | 0.00 | 0.00 | 70 | 1014.8 | |
| 20260831065535 | 53 | 0.0 | 0.0 | 0.00 | 0.00 | 0.00 | 70 | 1014.8 | |
| 20260831064535 | 53 | 0.0 | 0.0 | 0.00 | 0.00 | 0.00 | 69 | 1014.7 | |
| 20260831063536 | 53 | 0.0 | 0.0 | 0.00 | 0.00 | 0.00 | 67 | 1014.7 | |
| 20260831062537 | 54 | 0.0 | 0.0 | 0.00 | 0.00 | 0.00 | 67 | 1014.7 | |
| 20260831061536 | 54 | 0.0 | 0.0 | 0.00 | 0.00 | 0.00 | 66 | 1014.7 | |
| 20260831060536 | 55 | 0.0 | 0.0 | 0.00 | 0.00 | 0.00 | 65 | 1014.6 | |
| 20260831055536 | 56 | 0.0 | 0.0 | 0.00 | 0.00 | 0.00 | 65 | 1014.7 | |
| 20260831054536 | 57 | 0.0 | 0.0 | 0.00 | 0.00 | 0.00 | 63 | 1014.7 | |
| 20260831053618 | 57 | 0.0 | 0.0 | 0.00 | 0.00 | 0.00 | 63 | 1014.7 | |
| 20260831052536 | 57 | 0.0 | 0.0 | 0.00 | 0.00 | 0.00 | 63 | 1014.8 | |
| 20260831051536 | 58 | 0.0 | 0.0 | 0.00 | 0.00 | 0.00 | 61 | 1014.8 | |
| 20260831050556 | 59 | 0.0 | 0.0 | 0.00 | 0.00 | 0.00 | 60 | 1014.7 | |
| 20260831045536 | 60 | 0.0 | 0.0 | 0.00 | 0.00 | 0.00 | 60 | 1014.7 | |
| 20260831044537 | 60 | 0.0 | 0.0 | 0.00 | 0.00 | 0.00 | 59 | 1014.8 | |
| 20260831043557 | 61 | 0.0 | 0.0 | 0.00 | 0.00 | 0.00 | 57 | 1014.8 | |
| 20260831042537 | 61 | 0.0 | 0.0 | 0.00 | 0.00 | 0.00 | 56 | 1014.8 | |
| 20260831041537 | 62 | 0.0 | 0.0 | 0.00 | 0.00 | 0.00 | 55 | 1014.8 | |
| 20260831040537 | 63 | 0.0 | 0.0 | 0.00 | 0.00 | 0.00 | 50 | 1014.7 | |
| 20260831035537 | 64 | 0.0 | 0.0 | 0.00 | 0.00 | 0.00 | 49 | 1014.7 | |
| 20260831034539 | 64 | 0.0 | 0.0 | 0.00 | 0.00 | 0.00 | 48 | 1014.6 | |
| 20260831033539 | 65 | 0.0 | 0.0 | 0.00 | 0.00 | 0.00 | 45 | 1014.5 | |
| 20260831032539 | 66 | 132 | 4.0 | 5.0 | 0.00 | 0.00 | 0.00 | 44 | 1014.4 |
| 20260831031538 | 67 | 145 | 6.0 | 7.0 | 0.00 | 0.00 | 0.00 | 42 | 1014.3 |
| 20260831030558 | 68 | 149 | 4.0 | 5.0 | 0.00 | 0.00 | 0.00 | 40 | 1014.3 |
| 20260831025559 | 70 | 136 | 4.0 | 6.0 | 0.00 | 0.00 | 0.00 | 38 | 1014.3 |
| 20260831024538 | 72 | 181 | 3.0 | 4.0 | 0.00 | 0.00 | 0.00 | 35 | 1014.1 |
| 20260831023600 | 75 | 0.0 | 0.0 | 0.00 | 0.00 | 0.00 | 39 | 1014.1 | |
| 20260831022540 | 79 | 0.0 | 0.0 | 0.00 | 0.00 | 0.00 | 35 | 1014.0 | |
| 20260831021538 | 82 | 270 | 2.0 | 2.0 | 0.00 | 0.00 | 0.00 | 33 | 1014.0 |
| 20260831020538 | 84 | 0.0 | 0.0 | 0.00 | 0.00 | 0.00 | 29 | 1014.0 | |
| 20260831015539 | 85 | 0.0 | 0.0 | 0.00 | 0.00 | 0.00 | 26 | 1014.1 | |
| 20260831014539 | 86 | 270 | 2.0 | 2.0 | 0.00 | 0.00 | 0.00 | 23 | 1014.0 |
| 20260831013540 | 87 | 250 | 2.0 | 3.0 | 0.00 | 0.00 | 0.00 | 24 | 1014.1 |
| 20260831012539 | 87 | 245 | 1.0 | 3.0 | 0.00 | 0.00 | 0.00 | 25 | 1014.1 |
| 20260831011539 | 87 | 283 | 2.0 | 3.0 | 0.00 | 0.00 | 0.00 | 21 | 1014.1 |
| 20260831010541 | 87 | 23 | 0.0 | 2.0 | 0.00 | 0.00 | 0.00 | 20 | 1014.2 |
| 20260831005601 | 87 | 250 | 2.0 | 4.0 | 0.00 | 0.00 | 0.00 | 24 | 1014.4 |
| 20260831004541 | 86 | 331 | 2.0 | 3.0 | 0.00 | 0.00 | 0.00 | 21 | 1014.3 |
| 20260831003539 | 86 | 270 | 1.0 | 3.0 | 0.00 | 0.00 | 0.00 | 21 | 1014.3 |
| 20260831002600 | 84 | 309 | 1.0 | 3.0 | 0.00 | 0.00 | 0.00 | 23 | 1014.4 |
| 20260831001541 | 83 | 291 | 2.0 | 4.0 | 0.00 | 0.00 | 0.00 | 22 | 1014.4 |
| 20260831000540 | 83 | 326 | 2.0 | 3.0 | 0.00 | 0.00 | 0.00 | 23 | 1014.5 |
| 20260830235541 | 84 | 319 | 3.0 | 5.0 | 0.00 | 0.00 | 0.00 | 24 | 1014.6 |
| 20260830234540 | 83 | 338 | 3.0 | 5.0 | 0.00 | 0.00 | 0.00 | 26 | 1014.7 |
| 20260830233540 | 84 | 293 | 3.0 | 9.0 | 0.00 | 0.00 | 0.00 | 26 | 1014.8 |
| 20260830232541 | 83 | 279 | 4.0 | 5.0 | 0.00 | 0.00 | 0.00 | 27 | 1014.9 |
| 20260830231540 | 81 | 302 | 3.0 | 5.0 | 0.00 | 0.00 | 0.00 | 29 | 1015.0 |
| 20260830230540 | 80 | 99 | 2.0 | 4.0 | 0.00 | 0.00 | 0.00 | 30 | 1015.0 |
| 20260830225541 | 81 | 34 | 3.0 | 6.0 | 0.00 | 0.00 | 0.00 | 29 | 1015.1 |
| 20260830224542 | 81 | 38 | 4.0 | 6.0 | 0.00 | 0.00 | 0.00 | 29 | 1015.2 |
| 20260830223543 | 81 | 304 | 4.0 | 5.0 | 0.00 | 0.00 | 0.00 | 29 | 1015.4 |
| 20260830222541 | 81 | 8 | 2.0 | 6.0 | 0.00 | 0.00 | 0.00 | 29 | 1015.5 |
| 20260830221541 | 80 | 0 | 4.0 | 6.0 | 0.00 | 0.00 | 0.00 | 29 | 1015.5 |